Weather History for KNGP - November, 2012

Change the Weather History Date:

Friday, November 2, 2012

  Actual Average Record
Temperature  
Mean Temperature 76 °F -  
Max Temperature 84 °F 76 °F 84 °F (2000)
Min Temperature 69 °F 61 °F 44 °F (2005)
Cooling Degree Days 12    
Growing Degree Days 26 (Base 50)    
Moisture  
Dew Point 69 °F    
Average Humidity 79    
Maximum Humidity 100    
Minimum Humidity 56    
Precipitation  
Precipitation 0.00 in - - ()
Sea Level Pressure  
Sea Level Pressure 29.99 in    
Wind  
Wind Speed 8 mph (SSE)    
Max Wind Speed 17 mph    
Max Gust Speed 23 mph    
Visibility 10 miles    
Events      
Averages and records for this station are not official NWS values.
T = Trace of Precipitation, MM = Missing Value Source: NWS Daily Summary

Daily Weather History Graph

Daily Weather History Graph

Search for Another Location

Airport or City:

Trip Planner

Search our weather history database for the weather conditions in past years. The results will help you decide how hot, cold, wet, or windy it might be!

Date:

Astronomy

Nov. 02, 2012 Rise Set
Actual Time 7:41 AM CDT 6:44 PM CDT
Civil Twilight 7:16 AM CDT 7:08 PM CDT
Nautical Twilight 6:49 AM CDT 7:35 PM CDT
Astronomical Twilight 6:21 AM CDT 8:03 PM CDT
Moon 9:42 PM CDT (11/2) 10:52 AM CDT (11/2)
Length of Visible Light 11h 51m
Length of Day
11h 03m
Waning Gibbous, 87% of the Moon is Illuminated
Nov 2
Waning Gibbous
Nov 6
Last Quarter
Nov 13
New
Nov 20
First Quarter
Nov 28
Full

Hourly Weather History & Observations

Time (CDT) Temp. Heat Index Dew Point Humidity Pressure Visibility Wind Dir Wind Speed Gust Speed Precip Events Conditions
12:56 AM 73.0 °F - 70.0 °F 90% 30.00 in 10.0 mi SSE 8.1 mph - N/A   Clear
1:56 AM 72.0 °F - 70.0 °F 93% 30.00 in 10.0 mi SSE 4.6 mph - N/A   Clear
2:56 AM 71.1 °F - 70.0 °F 96% 29.99 in 10.0 mi SSE 4.6 mph - N/A   Partly Cloudy
3:56 AM 72.0 °F - 71.1 °F 97% 29.99 in 10.0 mi SSE 5.8 mph - N/A   Clear
4:56 AM - - - N/A% 30.00 in 10.0 mi South 5.8 mph - N/A   Clear
5:56 AM - - - N/A% 30.00 in 10.0 mi SSE 4.6 mph - N/A   Clear
6:56 AM 70.0 °F - 69.1 °F 97% 30.00 in 10.0 mi South 3.5 mph - N/A   Clear
7:00 AM 69.8 °F - 69.8 °F 100% 30.00 in 10.0 mi Calm Calm - N/A   Scattered Clouds
7:56 AM 72.7 °F - 69.1 °F 88% 30.01 in 9.0 mi Calm Calm - N/A   Mostly Cloudy
8:56 AM 72.7 °F - 69.1 °F 88% 30.02 in 10.0 mi Calm Calm - N/A   Mostly Cloudy
9:56 AM 79.0 °F - 72.0 °F 79% 30.03 in 10.0 mi SE 6.9 mph - N/A   Mostly Cloudy
10:56 AM 81.0 °F 83.8 °F 68.0 °F 65% 30.03 in 10.0 mi SSE 12.7 mph - N/A   Scattered Clouds
11:56 AM 82.9 °F 85.8 °F 68.0 °F 60% 30.02 in 10.0 mi South 12.7 mph - N/A   Scattered Clouds
12:56 PM 84.0 °F 86.5 °F 66.9 °F 56% 30.00 in 10.0 mi South 15.0 mph 20.7 mph N/A   Scattered Clouds
1:56 PM 82.9 °F 85.8 °F 68.0 °F 60% 29.98 in 10.0 mi SSE 17.3 mph 23.0 mph N/A   Scattered Clouds
2:56 PM 84.0 °F 86.5 °F 66.9 °F 56% 29.96 in 10.0 mi SSE 16.1 mph - N/A   Scattered Clouds
3:56 PM 82.9 °F 85.4 °F 66.9 °F 58% 29.94 in 10.0 mi SSE 16.1 mph - N/A   Scattered Clouds
4:56 PM 81.0 °F 84.1 °F 69.1 °F 67% 29.94 in 10.0 mi SE 16.1 mph - N/A   Partly Cloudy
5:56 PM 78.1 °F - 69.1 °F 74% 29.94 in 10.0 mi SE 15.0 mph - N/A   Scattered Clouds
6:56 PM 77.0 °F - 70.0 °F 79% 29.94 in 10.0 mi SE 12.7 mph - N/A   Scattered Clouds
7:56 PM 75.9 °F - 71.1 °F 85% 29.96 in 10.0 mi SE 11.5 mph - N/A   Scattered Clouds
8:56 PM 75.9 °F - 70.0 °F 82% 29.97 in 10.0 mi SSE 11.5 mph - N/A   Clear
9:56 PM 75.9 °F - 70.0 °F 82% 29.98 in 10.0 mi SSE 12.7 mph - N/A   Clear
10:56 PM 75.9 °F - 71.1 °F 85% 29.99 in 10.0 mi SSE 11.5 mph - N/A   Clear
11:56 PM 75.0 °F - 71.1 °F 87% 29.99 in 10.0 mi SSE 11.5 mph - N/A   Clear